Date,TemperatureHighF,TemperatureAvgF,TemperatureLowF,DewpointHighF,DewpointAvgF,DewpointLowF,HumidityHigh,HumidityAvg,HumidityLow,PressureMaxIn,PressureMinIn,WindSpeedMaxMPH,WindSpeedAvgMPH,GustSpeedMaxMPH,PrecipitationSumIn
2013-1-1,44,39,32,35,30,21,82,72,51,29.99,29.88,11,1,11,0.00
2013-1-2,41,35,29,31,25,17,87,69,39,30.18,29.95,12,2,13,0.00
2013-1-3,41,30,22,24,20,17,83,66,41,30.19,30.09,15,0,15,0.00
2013-1-4,44,33,23,24,20,18,84,62,39,30.19,30.08,28,3,28,0.00
2013-1-5,46,35,22,29,23,17,84,64,38,30.34,30.12,14,2,14,0.00
2013-1-6,48,40,27,33,29,24,90,67,50,30.14,30.00,13,2,13,0.00
2013-1-7,43,37,25,31,27,22,88,68,55,30.41,30.11,21,3,21,0.00
2013-1-8,56,38,25,34,27,22,89,70,33,30.37,30.27,17,3,17,0.01
2013-1-9,62,45,28,47,36,25,92,72,39,30.38,30.21,26,4,26,0.00
2013-1-10,56,45,32,36,31,26,83,60,38,30.55,30.38,21,1,21,0.00
2013-1-11,51,45,36,44,37,30,92,74,56,30.40,30.06,18,3,18,0.01
2013-1-12,72,52,42,56,47,40,95,85,53,30.12,30.03,9,0,9,0.00
2013-1-13,70,58,45,59,52,43,95,82,61,30.07,29.94,18,4,18,0.00
2013-1-14,64,55,39,57,48,37,91,77,67,30.27,29.94,21,7,21,0.27
2013-1-15,39,37,36,37,35,34,94,92,88,30.31,30.08,15,4,15,0.79
2013-1-16,46,39,35,44,37,33,94,92,88,30.09,29.78,20,3,20,0.24
2013-1-17,45,41,36,42,35,27,94,79,49,30.08,29.93,13,2,13,0.00
2013-1-18,41,35,30,30,20,14,81,54,34,30.41,30.07,22,5,22,0.00
2013-1-19,55,43,28,30,25,20,74,49,33,30.35,29.95,24,9,26,0.00
2013-1-20,57,46,31,32,21,0,63,39,16,30.03,29.85,33,8,33,0.00
2013-1-21,50,36,25,23,16,7,73,47,24,30.04,29.76,39,6,39,0.00
2013-1-22,29,21,16,10,-1,-6,50,38,27,30.20,29.91,34,8,34,0.00
2013-1-23,28,20,11,16,3,-1,81,47,31,30.25,30.03,17,2,17,0.00
2013-1-24,26,20,14,18,10,2,94,65,38,30.47,29.98,29,6,29,0.00
2013-1-25,25,20,12,19,11,6,78,70,48,30.46,29.98,19,3,19,0.00
2013-1-26,37,29,24,26,21,18,82,72,60,30.37,29.98,12,2,12,0.00
2013-1-27,39,31,20,25,22,16,86,68,52,30.51,30.36,17,2,17,0.00
2013-1-28,56,44,32,46,37,24,96,76,66,30.38,30.05,24,7,24,0.16
2013-1-29,74,57,44,56,49,41,93,75,52,30.10,29.93,19,3,21,0.00
2013-1-30,69,61,48,61,55,44,95,83,72,29.93,29.27,30,6,30,1.87
2013-1-31,57,40,30,55,25,14,95,56,42,29.87,29.23,33,10,46,0.14
2013-2-1,33,24,14,26,10,2,82,56,39,30.31,29.75,43,8,43,0.00
2013-2-2,33,24,13,24,14,7,81,68,37,30.30,29.94,23,4,23,0.00
2013-2-3,39,32,27,31,23,13,90,71,50,29.94,29.75,37,4,37,0.00
2013-2-4,38,32,21,29,17,11,76,55,47,30.04,29.84,27,5,31,0.00
2013-2-5,51,43,34,36,32,28,82,65,54,29.89,29.79,22,4,22,0.00
2013-2-6,49,39,28,33,29,23,86,68,43,30.27,29.88,18,2,18,0.00
2013-2-7,41,34,26,30,27,22,92,74,60,30.34,30.11,15,1,15,0.00
2013-2-8,44,37,33,38,31,23,93,79,56,30.11,29.76,52,6,52,0.08
2013-2-9,44,34,22,23,18,12,77,52,30,30.33,29.96,36,8,36,0.00
2013-2-10,47,33,18,30,19,13,88,61,34,30.39,30.14,20,3,20,0.01
2013-2-11,64,52,39,51,37,19,86,62,23,30.14,29.74,32,8,32,0.00
2013-2-12,60,49,37,28,24,18,64,39,19,29.95,29.80,30,5,31,0.00
2013-2-13,40,34,30,30,27,24,83,74,59,29.91,29.78,11,1,11,0.00
2013-2-21,38,33,30,19,18,18,62,55,45,30.26,30.16,9,5,14,0.00
2013-2-22,37,33,29,28,24,18,84,70,62,30.30,30.11,10,2,14,0.04
2013-2-23,52,40,35,42,34,28,91,78,64,30.11,29.78,6,0,9,0.00
2013-2-24,53,40,32,40,33,18,95,77,35,30.10,29.79,27,4,27,0.00
2013-2-25,44,33,21,24,20,16,83,62,41,30.18,30.09,12,1,13,0.00
2013-2-26,41,34,25,39,30,20,93,87,78,30.15,29.60,17,3,17,0.57
2013-2-27,53,44,38,42,36,32,94,74,50,29.69,29.55,26,4,26,0.01
2013-2-28,44,41,37,35,27,24,76,59,49,29.73,29.62,18,4,25,0.00
2013-3-1,39,37,34,29,26,22,73,65,59,29.88,29.73,29,6,29,0.00
2013-3-2,36,33,31,25,22,18,79,63,53,29.87,29.80,18,5,18,0.00
2013-3-3,41,32,27,23,19,15,72,58,44,29.93,29.79,29,7,29,0.00
2013-3-4,46,33,23,20,15,11,72,48,24,30.02,29.93,27,5,27,0.00
2013-3-5,51,39,28,31,24,16,92,57,33,30.03,29.70,15,2,15,0.03
2013-3-6,40,36,32,34,31,29,94,84,66,30.01,29.61,38,9,38,0.54
2013-3-7,42,39,36,30,28,26,74,64,55,30.17,30.00,28,8,28,0.00
2013-3-8,42,38,31,29,27,24,78,64,56,30.29,30.14,32,10,33,0.00
2013-3-9,52,36,24,31,26,21,92,70,34,30.35,30.23,10,1,10,0.00
2013-3-10,62,44,27,35,29,24,89,60,31,30.27,30.14,18,3,18,0.00
2013-3-11,57,51,43,50,35,22,81,55,27,30.16,29.83,22,4,22,0.00
2013-3-12,59,52,39,52,44,29,94,74,49,29.97,29.71,25,6,25,0.88
2013-3-13,49,38,30,32,24,16,87,60,34,30.06,29.89,34,6,34,0.00
2013-3-14,46,37,29,22,17,14,60,46,32,30.13,30.03,30,8,30,0.00
2013-3-15,58,43,26,37,27,16,78,55,38,30.08,29.76,25,5,25,0.00
2013-3-16,65,47,38,53,41,32,91,79,62,29.87,29.60,27,5,27,0.09
2013-3-17,39,35,32,35,33,30,94,91,85,30.20,29.87,12,3,12,0.15
2013-3-18,36,33,31,34,31,30,100,92,85,30.22,29.85,11,1,11,0.29
2013-3-19,57,44,33,40,26,5,100,58,17,29.94,29.72,47,7,47,0.01
2013-3-20,52,43,31,28,15,6,65,33,22,29.99,29.74,34,8,34,0.00
2013-3-21,39,31,27,29,16,9,75,53,38,29.90,29.75,29,8,29,0.00
2013-3-22,49,35,26,23,16,10,61,45,29,29.94,29.84,25,4,25,0.00
2013-3-23,55,45,26,26,22,14,81,43,23,30.02,29.87,21,4,21,0.00
2013-3-24,39,34,31,31,26,22,93,76,55,29.95,29.59,11,1,11,0.02
2013-3-25,36,33,29,34,31,28,94,92,85,29.70,29.49,7,0,7,0.25
2013-3-26,44,37,30,32,29,25,93,74,49,30.02,29.70,26,5,26,0.00
2013-3-27,46,39,31,31,27,23,79,62,46,30.13,30.01,32,7,32,0.00
2013-3-28,46,40,34,30,27,24,78,59,49,30.22,30.09,29,6,29,0.00
2013-3-29,55,42,31,34,29,24,88,62,33,30.24,30.11,16,3,21,0.00
2013-3-30,59,43,29,36,30,25,87,62,31,30.21,30.05,21,2,21,0.00
2013-3-31,59,48,37,50,43,30,92,81,70,30.05,29.73,14,3,18,0.05
2013-4-1,61,48,37,47,36,19,90,66,39,29.98,29.76,32,7,32,0.03
2013-4-2,49,41,30,22,17,11,65,39,22,30.14,29.97,29,7,29,0.00
2013-4-3,52,38,24,23,18,12,80,47,22,30.32,30.13,29,6,29,0.00
2013-4-4,48,36,25,33,21,16,91,58,31,30.35,30.01,20,3,21,0.23
2013-4-5,64,48,36,42,34,28,93,64,30,30.03,29.83,23,4,23,0.10
2013-4-6,59,47,32,29,23,14,72,41,22,30.27,30.03,16,4,16,0.00
2013-4-7,71,57,40,45,38,24,77,52,36,30.18,29.96,28,7,30,0.00
2013-4-8,79,66,48,52,47,42,82,52,32,30.13,29.98,26,6,26,0.00
2013-4-9,84,71,55,58,53,48,80,54,37,30.16,30.00,22,5,22,0.00
2013-4-10,88,74,58,60,55,51,78,53,32,30.06,29.86,23,6,24,0.00
2013-4-11,86,72,54,61,56,46,88,59,25,29.94,29.76,15,4,20,0.00
2013-4-12,78,69,58,64,54,38,92,63,32,29.83,29.63,28,7,28,0.93
2013-4-13,70,59,47,42,34,21,67,42,19,30.01,29.83,22,7,29,0.00
2013-4-14,72,58,39,47,39,26,80,51,31,30.15,30.01,18,2,18,0.00
2013-4-15,64,58,52,53,50,44,92,76,55,30.28,30.11,18,2,19,0.22
2013-4-16,73,64,57,60,56,52,87,77,62,30.31,30.18,24,6,24,0.00
2013-4-17,81,67,58,65,60,56,94,79,50,30.25,30.14,26,2,26,0.06
2013-4-18,76,67,60,64,59,55,90,76,54,30.22,30.00,29,4,29,0.00
2013-4-19,74,67,54,64,58,38,88,75,53,30.00,29.66,32,8,32,0.44
2013-4-20,59,51,43,39,30,23,62,46,31,30.36,29.85,50,7,50,0.00
2013-4-21,55,45,34,35,30,26,78,56,33,30.58,30.36,18,4,18,0.00
2013-4-22,58,45,31,39,33,27,89,65,40,30.55,30.35,17,3,17,0.00
2013-4-23,67,52,39,49,42,35,92,71,47,30.39,30.12,15,2,15,0.00
2013-4-24,78,62,44,58,50,41,92,69,40,30.13,29.83,37,7,37,0.01
2013-4-25,66,54,44,43,33,20,72,49,19,30.35,30.08,28,4,28,0.00
2013-4-26,66,52,34,44,38,30,89,61,34,30.48,30.34,13,2,13,0.00
2013-4-27,71,56,40,47,42,36,89,63,36,30.42,30.27,17,2,17,0.00
2013-4-28,58,55,50,51,47,44,86,74,64,30.28,30.14,20,4,20,0.12
2013-4-29,68,58,52,58,52,47,92,83,69,30.16,30.02,12,2,12,0.03
2013-4-30,64,59,54,57,54,49,92,84,71,30.31,30.10,13,4,14,0.00
2013-5-1,72,60,48,52,45,37,84,63,29,30.42,30.30,20,3,20,0.00
2013-5-2,72,55,39,52,43,34,94,67,29,30.43,30.31,14,2,14,0.00
2013-5-3,68,54,39,51,44,37,95,71,46,30.39,30.27,17,2,17,0.00
2013-5-4,67,52,36,52,43,34,92,72,49,30.33,30.17,17,2,17,0.00
2013-5-5,65,53,37,46,42,35,92,69,45,30.24,30.12,17,3,17,0.00
2013-5-6,60,54,50,56,51,45,94,87,71,30.18,30.03,17,5,17,0.28
2013-5-7,62,57,53,59,55,51,94,93,89,30.03,29.94,17,4,18,2.71
2013-5-8,66,56,48,58,52,46,95,89,66,30.04,29.96,14,1,14,0.10
2013-5-9,76,60,46,61,52,45,99,78,40,30.08,29.98,20,2,20,0.05
2013-5-10,83,66,51,61,56,49,94,74,40,30.09,29.91,36,3,36,0.30
2013-5-11,78,67,59,63,60,56,93,78,53,29.95,29.78,21,4,21,0.03
2013-5-12,62,56,42,58,40,27,94,57,33,30.08,29.83,28,6,28,0.00
2013-5-13,59,47,38,38,33,24,92,61,32,30.21,30.07,29,4,29,0.00
2013-5-14,68,51,33,50,39,31,93,68,36,30.25,30.03,14,2,14,0.01
2013-5-15,92,72,50,66,52,44,86,56,24,30.04,29.78,33,5,33,0.00
2013-5-16,82,71,61,64,58,50,90,65,39,30.03,29.88,26,3,26,0.00
2013-5-17,82,68,55,64,59,53,94,74,42,30.16,30.01,17,1,17,0.00
2013-5-18,72,66,62,64,61,58,92,85,74,30.24,30.15,12,1,12,0.00
2013-5-19,71,65,60,64,61,57,92,86,76,30.22,30.11,13,1,13,0.00
2013-5-20,83,72,64,69,65,61,94,80,61,30.15,30.03,18,2,18,0.01
2013-5-21,88,73,61,71,65,58,94,77,47,30.06,29.94,14,1,14,0.00
2013-5-22,89,74,63,69,65,60,94,75,39,30.00,29.89,36,3,36,0.26
2013-5-23,82,70,62,68,63,58,94,81,58,29.97,29.80,35,3,35,0.25
2013-5-24,62,55,46,60,41,31,94,61,47,30.23,29.87,36,10,36,0.00
2013-5-25,65,52,39,41,36,31,78,55,32,30.29,30.18,31,6,31,0.00
2013-5-26,72,56,39,44,38,30,92,57,23,30.29,30.18,19,3,19,0.00
2013-5-27,64,54,40,54,47,38,92,77,53,30.34,30.21,8,0,8,0.00
2013-5-28,84,66,51,70,60,49,93,83,51,30.24,30.10,21,1,21,0.34
2013-5-29,88,76,62,67,63,58,91,66,42,30.20,30.13,12,2,17,0.00
2013-5-30,90,77,63,69,63,57,90,66,37,30.26,30.17,15,2,15,0.00
2013-5-31,89,74,60,67,63,58,93,71,42,30.23,30.09,15,2,19,0.00
2013-6-1,89,77,64,70,65,60,89,69,47,30.11,29.98,22,3,22,0.00
2013-6-2,84,75,67,70,65,60,81,70,55,30.00,29.90,22,4,22,0.00
2013-6-3,82,72,64,67,64,56,93,76,50,30.04,29.90,22,2,22,0.00
2013-6-4,75,65,54,56,51,43,93,65,34,30.19,30.03,15,2,15,0.00
2013-6-5,80,68,54,62,56,50,89,68,45,30.21,30.08,18,2,18,0.00
2013-6-6,70,64,61,62,59,54,95,85,65,30.09,29.89,13,1,13,1.35
2013-6-7,69,65,63,67,64,61,95,94,91,29.89,29.71,14,2,16,0.42
2013-6-8,81,69,60,66,62,55,95,81,42,30.14,29.84,9,0,9,0.07
2013-6-9,80,69,59,71,64,57,95,87,70,30.24,30.11,11,1,11,0.06
2013-6-10,80,70,66,73,68,64,95,92,75,30.16,29.87,28,1,32,1.45
2013-6-11,81,72,62,68,63,60,95,75,53,29.96,29.89,21,2,21,0.00
2013-6-12,88,75,61,73,66,59,93,75,49,29.98,29.86,15,2,15,0.00
2013-6-13,81,72,65,71,65,56,92,80,68,29.89,29.62,41,4,41,0.28
2013-6-14,77,68,59,61,55,52,89,65,46,30.08,29.75,33,6,33,0.00
2013-6-15,81,68,54,65,57,51,93,72,42,30.17,30.05,14,1,14,0.00
2013-6-16,82,71,58,71,63,56,95,77,57,30.10,29.98,19,2,19,0.01
2013-6-17,85,75,66,72,67,63,92,77,57,30.05,29.95,11,1,11,0.00
2013-6-18,74,68,62,69,64,60,94,88,75,30.01,29.88,15,1,15,0.33
2013-6-19,76,68,62,67,63,60,95,85,63,30.20,29.96,12,1,12,0.00
2013-6-20,78,70,61,68,63,59,96,80,60,30.29,30.19,17,2,17,0.00
2013-6-21,83,72,59,67,61,56,91,69,50,30.33,30.25,14,1,14,0.00
2013-6-22,86,73,58,70,63,55,93,75,49,30.30,30.18,16,1,16,0.00
2013-6-23,86,75,66,72,67,62,94,77,45,30.24,30.13,24,1,24,0.33
2013-6-24,86,73,64,74,67,62,94,82,57,30.22,30.12,32,1,32,0.01
2013-6-25,89,77,65,74,69,63,94,77,53,30.15,29.99,11,1,11,0.00
2013-6-26,87,75,69,74,70,66,94,85,62,30.01,29.91,36,1,38,0.37
2013-6-27,84,74,66,75,69,64,95,84,65,29.93,29.71,22,1,22,0.36
2013-6-28,90,77,67,74,66,59,91,71,39,29.75,29.56,31,3,31,0.00
2013-6-29,86,73,61,68,63,58,93,73,47,29.78,29.63,13,1,13,0.06
2013-6-30,86,74,66,74,68,64,95,83,60,29.91,29.77,13,1,19,0.06
2013-7-1,82,74,69,70,68,66,92,84,67,30.02,29.90,18,1,18,0.00
2013-7-2,79,74,70,72,70,67,93,87,74,30.21,30.01,16,1,16,0.13
2013-7-3,81,75,71,74,70,68,94,86,75,30.28,30.19,11,1,11,0.16
2013-7-4,85,77,70,76,71,67,93,82,63,30.30,30.22,19,2,19,0.53
2013-7-5,87,78,69,73,70,67,94,78,59,30.29,30.19,22,2,22,0.00
2013-7-6,89,79,69,75,70,66,94,75,55,30.26,30.14,15,1,18,0.00
2013-7-7,88,77,70,74,70,67,91,79,58,30.19,30.06,42,3,42,0.36
2013-7-8,83,74,65,72,68,64,95,81,62,30.20,30.12,19,0,19,0.12
2013-7-9,84,76,68,74,69,66,93,81,63,30.19,30.08,11,0,11,0.00
2013-7-10,85,77,72,75,71,69,91,82,70,30.09,29.96,18,2,18,0.00
2013-7-11,83,76,69,72,69,66,93,81,63,30.01,29.94,13,1,14,2.87
2013-7-12,72,67,64,67,65,62,95,92,81,30.13,30.00,15,2,15,2.07
2013-7-13,83,73,65,72,68,63,95,84,64,30.30,30.12,10,0,10,0.27
2013-7-15,90,84,73,76,73,69,92,71,53,30.35,30.29,0,0,0,0.01
2013-7-16,90,80,69,78,73,67,94,81,60,30.35,30.25,9,0,9,0.00
2013-7-17,90,80,72,79,74,70,94,81,58,30.32,30.18,1,0,1,0.00
2013-7-18,92,81,72,79,74,70,93,81,57,30.23,30.10,0,0,0,0.00
2013-7-19,93,79,71,78,72,68,94,82,53,30.12,29.99,28,0,28,0.04
2013-7-20,91,78,70,76,71,67,93,80,51,30.01,29.91,30,1,31,1.10
2013-7-21,88,74,67,75,69,65,94,86,55,30.05,29.97,31,1,46,0.67
2013-7-22,86,76,68,76,71,67,95,84,66,30.02,29.83,15,2,15,0.03
2013-7-23,87,77,69,72,69,65,94,78,50,29.85,29.74,15,1,15,0.01
2013-7-24,81,73,67,72,66,58,93,79,65,30.00,29.78,15,2,15,0.00
2013-7-25,77,68,59,65,59,54,92,73,57,30.13,29.98,1,0,1,0.00
2013-7-26,81,68,55,66,60,53,94,77,49,30.17,30.07,8,0,8,0.01
2013-7-27,76,70,63,71,66,61,94,88,77,30.11,29.98,19,1,19,0.16
2013-7-28,84,74,66,70,66,61,94,79,56,30.06,29.94,13,0,13,0.00
2013-7-29,79,69,57,64,58,52,94,71,46,30.25,30.06,12,1,12,0.00
2013-7-30,81,69,56,65,60,54,93,76,49,30.30,30.20,12,1,13,0.00
2013-7-31,80,68,60,70,64,59,94,87,66,30.21,30.06,15,0,22,0.07
2013-8-1,82,71,66,72,67,64,94,88,65,30.06,29.90,20,0,20,0.15
2013-8-2,84,72,62,68,64,61,96,78,47,30.06,29.97,13,1,13,0.01
2013-8-3,77,69,63,70,64,60,92,85,70,30.06,29.99,0,0,0,0.01
2013-8-4,80,68,57,64,59,53,95,75,45,30.12,30.01,22,2,22,0.00
2013-8-5,78,66,53,65,58,51,94,77,45,30.18,30.06,0,0,0,0.01
2013-8-6,81,71,64,69,65,62,95,84,61,30.10,30.04,12,1,12,0.16
2013-8-7,83,74,67,73,69,65,95,84,67,30.11,30.04,20,1,20,0.05
2013-8-8,83,75,69,73,70,67,94,86,71,30.09,30.03,16,1,16,0.02
2013-8-9,89,79,71,75,71,67,94,76,56,30.05,29.96,21,4,21,0.00
2013-8-10,82,74,70,74,70,68,94,87,69,30.16,30.04,4,0,4,0.27
2013-8-11,85,75,70,74,70,66,94,83,63,30.17,30.06,2,0,2,0.01
2013-8-12,86,75,68,73,69,66,95,84,56,30.11,29.98,17,0,17,0.00
2013-8-13,84,74,70,70,68,63,95,80,56,29.99,29.83,26,1,26,0.09
2013-8-14,73,65,54,63,53,47,90,66,49,30.19,29.91,24,4,24,0.00
2013-8-15,75,62,49,59,53,47,94,75,45,30.25,30.15,1,0,1,0.00
2013-8-16,77,64,50,61,55,48,95,76,49,30.25,30.17,13,0,13,0.01
2013-8-17,78,64,50,63,57,49,95,79,49,30.31,30.25,10,0,10,0.01
2013-8-18,67,64,60,63,61,58,94,91,85,30.30,30.23,12,1,12,1.01
2013-8-19,80,68,62,70,64,60,95,88,68,30.25,30.11,10,1,10,0.03
2013-8-20,84,74,67,72,68,65,94,83,60,30.24,30.16,9,1,9,0.00
2013-8-21,86,72,64,74,67,62,95,86,61,30.27,30.15,30,1,30,0.62
2013-8-22,84,72,65,71,67,61,95,84,57,30.18,30.04,30,1,30,0.07
2013-8-23,71,67,60,68,64,59,95,93,83,30.20,30.03,14,1,14,1.36
2013-8-24,80,66,58,66,60,55,96,84,50,30.38,30.20,13,1,13,0.01
2013-8-25,80,66,54,65,58,52,95,79,44,30.46,30.32,10,0,10,0.01
2013-8-26,83,70,58,68,62,56,94,78,49,30.36,30.10,11,1,11,0.01
2013-8-27,88,73,64,74,67,61,92,81,57,30.13,30.00,17,1,17,0.00
2013-8-28,80,72,69,73,70,67,95,91,81,30.04,29.88,13,1,14,0.50
2013-8-29,83,74,66,74,70,64,95,86,65,30.10,29.91,13,1,13,0.00
2013-8-30,86,73,64,72,67,62,96,83,57,30.11,29.95,18,2,18,0.01
2013-8-31,87,74,67,74,68,64,94,85,60,29.99,29.90,20,1,27,1.17
2013-9-1,86,73,64,75,68,62,96,86,62,29.95,29.86,14,0,14,0.01
2013-9-2,87,76,69,73,70,67,96,83,59,29.91,29.82,0,0,0,0.00
2013-9-3,83,73,62,69,64,58,95,76,47,30.05,29.84,16,1,16,0.01
2013-9-4,80,66,54,64,59,53,95,80,49,30.17,30.05,0,0,0,0.00
2013-9-5,84,67,55,65,58,53,95,77,42,30.20,30.08,18,2,20,0.01
2013-9-6,74,62,52,60,54,50,94,78,49,30.30,30.17,10,1,10,0.01
2013-9-7,80,64,52,64,57,50,95,79,44,30.20,30.01,1,0,1,0.01
2013-9-8,86,71,59,72,64,57,94,79,53,30.09,29.95,8,0,8,0.00
2013-9-9,81,70,63,68,62,56,93,77,61,30.24,30.09,17,1,17,0.00
2013-9-10,90,76,64,74,69,62,94,81,54,30.25,30.16,13,1,13,0.00
2013-9-11,90,78,68,76,71,66,94,82,57,30.24,30.08,14,1,14,0.00
2013-9-12,89,74,67,75,69,64,95,85,54,30.10,29.85,25,1,25,0.34
2013-9-13,74,67,58,66,57,49,95,72,47,30.02,29.81,27,7,27,0.01
2013-9-14,66,56,47,52,47,43,93,72,51,30.22,30.02,21,3,21,0.00
2013-9-15,76,60,45,60,52,43,95,78,51,30.28,30.12,18,2,18,0.01
2013-9-16,68,60,54,61,56,51,94,86,67,30.29,30.11,15,2,15,0.01
2013-9-17,67,56,46,54,50,44,95,83,57,30.46,30.29,14,2,16,0.01
2013-9-18,70,55,41,55,48,40,95,79,53,30.37,30.21,12,1,12,0.01
2013-9-19,76,62,51,63,56,49,93,82,60,30.24,30.12,9,0,11,0.00
2013-9-20,78,66,55,67,60,53,95,84,63,30.14,30.00,17,1,17,0.00
2013-9-21,70,66,60,66,63,59,96,90,83,30.00,29.74,26,1,26,0.57
2013-9-22,71,61,51,60,54,47,96,81,53,30.02,29.82,15,1,15,0.01
2013-9-23,66,54,45,52,48,43,94,80,55,30.16,30.02,1,0,1,0.00
2013-9-24,72,57,45,59,51,43,94,82,56,30.16,30.00,8,0,8,0.00
2013-9-25,74,59,48,59,52,46,99,82,43,30.05,29.93,10,0,10,0.01
2013-9-26,75,61,50,56,53,47,94,78,39,30.13,29.98,13,1,13,0.00
2013-9-27,73,58,45,58,52,44,95,82,54,30.27,30.13,9,0,9,0.01
2013-9-28,65,56,49,58,52,47,96,88,68,30.35,30.26,1,0,1,0.01
2013-9-29,72,58,46,56,51,44,96,80,48,30.26,30.10,4,0,8,0.01
2013-9-30,76,57,46,61,51,44,95,83,49,30.14,30.02,0,0,0,0.01
2013-10-1,80,63,55,63,56,53,94,82,44,30.16,30.05,16,1,16,0.00
2013-10-2,82,64,51,63,57,50,95,81,47,30.18,30.08,1,0,1,0.01
2013-10-3,82,66,54,66,59,52,95,82,53,30.20,30.10,12,0,12,0.01
2013-10-4,84,68,57,69,62,55,95,82,51,30.18,30.09,0,0,0,0.01
2013-10-5,86,70,59,68,63,57,95,80,50,30.19,30.07,0,0,0,0.01
2013-10-6,85,71,60,68,62,58,95,76,48,30.09,29.95,23,3,23,0.01
2013-10-7,73,65,53,67,59,44,93,80,60,30.12,29.82,22,3,22,1.09
2013-10-8,66,54,43,51,46,41,95,77,47,30.32,30.12,18,1,18,0.01
2013-10-9,58,52,46,51,48,44,94,87,74,30.36,30.27,14,2,14,0.20
2013-10-10,54,52,50,53,51,48,95,94,93,30.27,30.08,14,4,14,0.90
2013-10-11,59,56,54,57,55,52,95,94,92,30.08,30.03,12,3,12,0.27
2013-10-12,64,60,58,62,59,56,98,94,91,30.22,30.05,14,2,14,0.20
2013-10-13,61,58,56,59,56,55,95,94,92,30.35,30.21,13,2,13,0.43
2013-10-14,66,59,53,60,56,51,96,90,78,30.36,30.26,11,1,11,0.00
2013-10-15,67,57,52,58,54,50,96,90,70,30.28,30.14,6,0,6,0.01
2013-10-16,72,60,50,61,56,49,95,86,64,30.14,29.97,13,2,13,0.01
2013-10-17,72,64,59,64,59,49,94,84,68,29.97,29.79,21,2,21,0.01
2013-10-18,64,55,44,50,44,39,93,69,43,30.08,29.92,18,1,18,0.00
2013-10-19,64,53,42,55,47,40,95,82,57,30.04,29.82,23,2,23,0.00
2013-10-20,61,49,37,42,37,33,92,66,39,30.15,29.94,22,1,22,0.00
2013-10-21,67,50,36,47,41,34,94,74,41,30.18,29.99,21,3,21,0.01
2013-10-22,66,53,44,52,46,42,92,78,53,29.99,29.85,19,2,19,0.00
2013-10-23,55,47,41,43,38,33,87,71,55,29.98,29.72,24,3,24,0.00
2013-10-24,50,44,34,36,30,25,81,60,41,30.19,29.97,25,5,25,0.00
2013-10-25,51,39,28,34,29,25,90,69,42,30.36,30.18,22,4,22,0.00
2013-10-26,55,42,26,34,28,24,91,63,34,30.36,29.98,25,5,25,0.01
2013-10-27,61,48,36,42,36,32,90,65,42,30.17,30.00,23,2,23,0.00
2013-10-28,64,45,33,45,38,31,94,78,45,30.30,30.17,10,1,10,0.00
2013-10-29,64,48,34,48,41,32,95,80,52,30.42,30.30,8,0,8,0.01
2013-10-30,68,56,46,58,52,43,93,85,67,30.34,30.16,17,1,17,0.04
2013-10-31,71,61,52,60,55,50,95,82,65,30.20,29.78,16,3,23,0.00
2013-11-1,75,66,49,61,55,45,90,70,42,29.78,29.63,33,6,33,0.11
2013-11-2,66,53,43,51,42,36,94,71,37,29.96,29.73,27,4,27,0.01
2013-11-3,56,45,31,41,33,24,91,65,35,30.44,29.96,28,4,28,0.00
2013-11-4,47,37,29,31,28,24,92,71,47,30.62,30.44,10,2,10,0.00
2013-11-5,55,44,29,47,36,27,92,76,54,30.62,30.46,11,1,11,0.00
2013-11-6,70,57,48,52,48,44,90,74,52,30.46,30.10,28,4,28,0.00
2013-11-7,60,52,42,55,42,23,94,73,47,30.14,29.94,27,5,27,0.09
2013-11-8,50,41,30,31,26,23,84,57,36,30.34,30.14,31,5,31,0.00
2013-11-9,58,42,26,33,28,23,90,61,32,30.35,30.09,26,5,26,0.00
2013-11-10,63,48,36,39,30,26,77,53,25,30.29,30.01,34,7,34,0.00
2013-11-11,62,46,30,35,28,23,86,52,22,30.34,30.03,25,5,25,0.00
2013-11-12,53,40,29,37,23,15,66,53,36,30.44,29.99,33,8,33,0.00
2013-11-13,43,33,24,22,18,14,76,55,33,30.51,30.40,27,5,27,0.00
2013-11-14,60,40,23,24,20,15,79,49,20,30.41,30.24,14,3,14,0.00
2013-11-15,64,47,27,43,25,16,89,49,16,30.31,30.17,19,3,19,0.12
2013-11-16,60,50,40,52,46,38,95,88,73,30.32,30.23,8,1,12,0.09
2013-11-17,63,58,53,58,54,50,91,85,76,30.23,29.77,19,4,19,0.05
2013-11-18,65,58,47,60,38,25,88,49,23,30.01,29.75,46,7,46,0.07
2013-11-19,47,41,30,30,27,24,80,57,43,30.39,30.01,22,7,28,0.00
2013-11-20,46,34,27,28,24,21,89,70,41,30.53,30.38,11,2,11,0.00
2013-11-21,51,40,26,42,34,22,89,80,67,30.55,30.38,13,1,13,0.00
2013-11-22,67,58,47,55,50,42,83,75,65,30.39,30.06,23,6,23,0.00
2013-11-23,58,45,29,49,29,15,76,56,29,30.25,30.07,38,10,38,0.00
2013-11-24,30,25,19,21,7,4,73,45,35,30.54,30.25,36,11,36,0.00
2013-11-25,40,27,14,15,11,8,81,54,30,30.54,30.32,22,4,22,0.00
2013-11-26,39,36,33,37,28,14,94,77,40,30.33,29.68,18,4,18,1.67
2013-11-27,39,34,27,36,29,13,94,80,54,30.11,29.61,28,6,28,0.11
2013-11-28,38,29,22,24,18,13,86,64,43,30.44,30.10,23,2,24,0.00
2013-11-29,42,30,21,27,22,18,90,75,46,30.69,30.43,16,1,16,0.00
2013-11-30,40,28,18,26,21,16,98,76,52,30.69,30.35,10,2,13,0.00
2013-12-1,49,35,23,34,27,20,89,73,49,30.35,30.02,8,2,12,0.00
2013-12-2,55,44,38,39,36,33,84,72,50,30.02,29.86,5,0,8,0.00
2013-12-3,57,42,33,42,36,30,92,79,56,30.01,29.89,11,0,11,0.00
2013-12-4,64,49,36,51,43,33,94,82,61,30.08,29.99,11,1,11,0.00
2013-12-5,71,60,48,59,54,46,93,81,64,30.07,29.97,19,5,24,0.00
2013-12-6,64,50,39,61,47,37,93,91,86,30.21,29.91,24,6,24,1.03
2013-12-7,41,36,28,37,31,24,93,83,66,30.53,30.15,17,5,17,0.06
2013-12-8,31,28,26,29,25,21,93,88,78,30.55,30.28,14,3,14,0.25
2013-12-9,49,36,31,45,34,29,95,92,85,30.30,30.01,9,0,9,0.63
2013-12-10,39,33,26,35,27,15,95,80,46,30.23,29.99,32,3,32,0.28
2013-12-11,41,31,17,24,19,13,88,62,42,30.39,30.22,29,4,29,0.06
2013-12-12,37,30,23,20,11,4,62,46,29,30.41,30.25,27,6,27,0.01
2013-12-13,44,32,25,25,17,11,80,54,35,30.31,30.21,20,5,20,0.01
2013-12-14,34,33,30,33,30,24,96,89,78,30.31,29.78,8,1,8,0.20
2013-12-15,44,36,32,38,29,22,95,76,53,29.97,29.67,32,4,32,0.05
2013-12-16,42,37,33,29,28,26,82,69,55,30.15,29.96,19,2,19,0.00
2013-12-17,53,39,28,38,31,26,91,75,52,30.11,29.91,26,4,26,0.00
2013-12-18,43,36,28,26,22,19,76,57,41,30.22,30.01,24,5,24,0.00
2013-12-19,65,46,30,32,26,20,74,48,27,30.21,30.09,22,6,22,0.00
2013-12-20,64,51,40,40,32,29,67,50,28,30.14,30.01,23,7,23,0.00
2013-12-21,71,62,50,59,49,38,75,61,49,30.07,29.91,22,8,32,0.00
2013-12-22,71,64,60,62,58,55,92,80,65,30.07,29.86,36,8,36,0.35
2013-12-23,62,52,35,58,46,27,94,80,59,30.26,29.96,28,6,28,0.69
2013-12-24,38,31,22,27,19,7,84,64,41,30.47,30.22,29,5,29,0.00
2013-12-25,34,25,15,18,13,8,84,62,44,30.53,30.33,14,2,14,0.00
2013-12-26,47,33,21,27,19,14,80,57,35,30.37,30.22,24,4,24,0.00
2013-12-27,51,33,22,25,22,18,85,65,32,30.44,30.31,15,3,15,0.00
2013-12-28,56,39,25,29,25,20,84,60,30,30.36,30.13,15,4,20,0.00
2013-12-29,50,43,38,47,39,28,95,85,58,30.13,29.63,33,2,33,1.62
2013-12-30,45,39,28,38,32,25,89,77,59,30.17,29.87,17,3,17,0.00
2013-12-31,44,34,26,29,23,15,92,67,39,30.32,30.13,27,4,35,0.00
2014-1-1,52,36,26,29,24,19,81,64,38,30.38,30.11,18,3,18,0.00
2014-1-2,34,32,29,29,27,24,93,84,68,30.11,29.65,14,3,14,0.00